VK4VP-5 Buderim QLD AU current weather conditions

sailwx.info

Wind from 144

Air temperature 24.4° C
Dewpoint 21.4° C

Last reported at 2015-Jan-27 13:45 UTC.
Time now 2015-Jan-27 14:30 UTC

Location: S 26°42' E 153°05'.
View on Google Maps.

See reports from other nearby stations

  
Tides and Currents Weather Stations Pressure Air Temp Water Temp Dewpoint Dewpoint Depression Visibility Wind Speed Wind Dir Waves Ship Positions
date/time (UTC)wind fromknots sea level pressurealtimeterstation pressurevisibilityair tempwater tempwave heightnotes
2015-Jan-27 13:45 144 24.4
2015-Jan-27 13:35 142 0 gusting 5 24.4
2015-Jan-27 13:25 142 0 gusting 3 24.4
2015-Jan-27 13:15 142 0 gusting 3 23.9
2015-Jan-27 13:05 142 23.9
2015-Jan-27 12:54 142 0 gusting 5 23.9
2015-Jan-27 12:44 143 0 gusting 6 23.9
2015-Jan-27 12:35 145 0 gusting 5 24.4
2015-Jan-27 12:25 148 1 gusting 7 25.0
2015-Jan-27 12:14 127 1 gusting 6 25.6
2015-Jan-27 12:04 139 0 gusting 6 25.6
2015-Jan-27 11:54 142 0 gusting 6 25.6
2015-Jan-27 11:45 142 1 gusting 9 25.6
2015-Jan-27 11:35 142 3 gusting 9 25.6
2015-Jan-27 11:24 138 2 gusting 8 25.6
2015-Jan-27 11:14 124 0 gusting 7 25.6
2015-Jan-27 11:04 122 1 gusting 9 25.6
2015-Jan-27 10:55 139 3 gusting 11 25.6
2015-Jan-27 10:44 154 1 gusting 8 25.6
2015-Jan-27 10:35 152 0 gusting 6 25.6
2015-Jan-27 10:24 140 0 gusting 7 25.6
2015-Jan-27 10:14 120 0 gusting 6 25.6
2015-Jan-27 10:04 135 0 gusting 6 25.6
2015-Jan-27 09:54 127 0 gusting 6 25.6
2015-Jan-27 09:44 137 2 gusting 8 25.6
2015-Jan-27 09:34 120 0 gusting 8 25.6
2015-Jan-27 09:25 129 1 gusting 9 26.1
2015-Jan-27 09:14 115 0 gusting 7 26.1
2015-Jan-27 09:04 133 0 gusting 6 26.1
2015-Jan-27 08:54 161 0 gusting 8 26.1
2015-Jan-27 08:44 142 1 gusting 8 26.1
2015-Jan-27 08:35 135 1 gusting 9 26.1
2015-Jan-27 08:25 154 0 gusting 7 26.1
2015-Jan-27 08:14 105 1 gusting 12 26.1
2015-Jan-27 08:04 101 0 gusting 7 26.1
2015-Jan-27 07:54 093 1 gusting 8 26.7
2015-Jan-27 07:45 128 0 gusting 6 26.7
2015-Jan-27 07:34 106 2 gusting 8 26.7
2015-Jan-27 07:24 129 2 gusting 13 26.7
2015-Jan-27 07:14 111 2 gusting 8 26.7
2015-Jan-27 07:04 134 2 gusting 10 26.7
2015-Jan-27 06:54 147 2 gusting 8 26.7
2015-Jan-27 06:44 171 27.2
2015-Jan-27 05:44 132 1 gusting 8 27.8
2015-Jan-27 05:34 133 1 gusting 10 27.8
2015-Jan-27 05:24 138 4 gusting 12 27.8
2015-Jan-27 05:14 107 1 gusting 8 27.8
2015-Jan-27 05:04 127 1 gusting 13 28.3
2015-Jan-27 04:54 140 2 gusting 10 27.8
2015-Jan-27 04:44 099 3 gusting 13 27.8
2015-Jan-27 04:34 115 3 gusting 12 27.8
2015-Jan-27 04:24 117 1 gusting 9 27.8
2015-Jan-27 04:14 111 1 gusting 7 27.8
2015-Jan-27 04:04 098 2 gusting 8 27.8
2015-Jan-27 03:54 142 3 gusting 11 27.2
2015-Jan-27 03:44 128 2 gusting 9 27.8
2015-Jan-27 03:34 132 2 gusting 10 27.8
2015-Jan-27 03:24 127 1 gusting 9 27.8
2015-Jan-27 03:14 136 3 gusting 8 28.3
2015-Jan-27 03:04 137 3 gusting 9 28.3
2015-Jan-27 02:54 141 3 gusting 11 28.3
2015-Jan-27 02:44 139 3 gusting 8 28.9
2015-Jan-27 02:34 137 5 gusting 9 28.3
2015-Jan-27 02:24 135 4 gusting 9 28.3
2015-Jan-27 02:14 123 4 gusting 12 28.3
2015-Jan-27 02:04 147 3 gusting 13 28.9
2015-Jan-27 01:54 128 4 gusting 11 28.3
2015-Jan-27 01:44 142 4 gusting 13 28.3
2015-Jan-27 01:34 129 4 gusting 11 28.9
2015-Jan-27 01:24 147 3 gusting 10 28.9
2015-Jan-27 01:14 123 3 gusting 10 28.9
2015-Jan-27 01:04 152 3 gusting 8 28.3
2015-Jan-27 00:54 149 2 gusting 8 28.9
2015-Jan-27 00:44 131 2 gusting 9 28.9
2015-Jan-27 00:34 127 3 gusting 12 28.3
2015-Jan-27 00:24 152 3 gusting 10 28.3
2015-Jan-27 00:14 133 3 gusting 9 28.9
2015-Jan-27 00:04 116 3 gusting 9 28.3
2015-Jan-26 23:54 117 2 gusting 8 28.3
2015-Jan-26 23:44 122 2 gusting 8 28.9
2015-Jan-26 23:34 139 1 gusting 8 28.3
2015-Jan-26 23:24 117 1 gusting 8 28.3
2015-Jan-26 23:14 162 2 gusting 8 28.3
2015-Jan-26 23:04 144 1 gusting 8 28.3
2015-Jan-26 22:54 151 3 gusting 11 27.8
2015-Jan-26 22:44 116 1 gusting 9 28.3
2015-Jan-26 22:34 126 1 gusting 11 27.8
2015-Jan-26 22:24 141 1 gusting 9 27.8
2015-Jan-26 22:14 149 2 gusting 10 27.8
2015-Jan-26 22:04 125 2 gusting 10 27.8
2015-Jan-26 21:54 151 1 gusting 8 27.2
2015-Jan-26 21:44 119 1 gusting 8 27.2
2015-Jan-26 21:34 105 0 gusting 6 26.7
2015-Jan-26 21:24 117 0 gusting 6 26.7
2015-Jan-26 21:14 123 0 gusting 6 26.7
2015-Jan-26 21:04 120 0 gusting 6 26.7
2015-Jan-26 20:55 128 0 gusting 10 26.1
2015-Jan-26 20:45 116 0 gusting 7 26.1
2015-Jan-26 20:34 120 25.6
2015-Jan-26 20:24 095 0 gusting 5 25.0
2015-Jan-26 20:14 126 0 gusting 6 25.0
2015-Jan-26 20:04 182 24.4
2015-Jan-26 19:55 131 24.4
2015-Jan-26 19:44 132 24.4
2015-Jan-26 19:34 132 24.4
2015-Jan-26 19:24 131 24.4
2015-Jan-26 19:15 132 24.4
2015-Jan-26 19:05 138 0 gusting 7 25.0
2015-Jan-26 18:54 140 25.6
2015-Jan-26 18:44 25.6
2015-Jan-26 18:34 140 25.6
2015-Jan-26 18:24 141 25.6
2015-Jan-26 18:14 141 25.6
2015-Jan-26 18:04 140 25.6
2015-Jan-26 17:54 140 25.6
2015-Jan-26 17:44 140 25.6
2015-Jan-26 17:34 140 25.6
2015-Jan-26 17:24 141 25.6
2015-Jan-26 17:14 141 25.6
2015-Jan-26 17:04 141 25.6
2015-Jan-26 16:54 141 0 gusting 5 25.6
2015-Jan-26 16:44 141 25.6
2015-Jan-26 16:34 142 25.6
2015-Jan-26 16:24 141 0 gusting 5 25.6
2015-Jan-26 16:14 142 1 gusting 8 25.6
2015-Jan-26 16:04 146 0 gusting 5 25.6
2015-Jan-26 15:54 145 0 gusting 8 25.6
2015-Jan-26 15:44 143 0 gusting 6 25.6
2015-Jan-26 15:34 146 25.6
2015-Jan-26 15:24 147 0 gusting 6 25.6
2015-Jan-26 15:14 147 0 gusting 5 25.6
2015-Jan-26 15:04 141 0 gusting 8 25.6
2015-Jan-26 14:54 136 0 gusting 6 25.6
2015-Jan-26 14:44 139 0 gusting 6 26.1
2015-Jan-26 14:34 141 26.1
2015-Jan-26 14:24 141 26.1
2015-Jan-26 14:14 142 0 gusting 6 26.1
2015-Jan-26 14:04 144 26.1
2015-Jan-26 13:54 144 26.1
2015-Jan-26 13:44 146 26.1
2015-Jan-26 13:34 147 1 gusting 7 26.1
2015-Jan-26 13:24 144 1 gusting 7 26.1
2015-Jan-26 13:14 148 2 gusting 9 26.1
2015-Jan-26 13:04 146 0 gusting 5 26.1
2015-Jan-26 12:54 145 0 gusting 5 26.1
2015-Jan-26 12:44 144 0 gusting 3 26.1
2015-Jan-26 12:34 144 26.1
2015-Jan-26 12:24 145 2 gusting 8 26.1
2015-Jan-26 12:14 145 2 gusting 9 26.1
2015-Jan-26 12:04 160 3 gusting 9 26.1
2015-Jan-26 11:54 156 3 gusting 10 26.1
2015-Jan-26 11:44 162 3 gusting 13 26.1
2015-Jan-26 11:34 155 4 gusting 15 26.1
2015-Jan-26 11:24 184 3 gusting 11 26.1
2015-Jan-26 11:14 160 4 gusting 14 26.7
2015-Jan-26 11:04 162 3 gusting 10 26.7
2015-Jan-26 04:49 141 0 gusting 6 27.8
2015-Jan-26 04:39 145 2 gusting 8 27.8
2015-Jan-26 04:29 150 0 gusting 5 27.8
2015-Jan-26 04:19 143 0 gusting 7 27.8
2015-Jan-26 04:09 131 2 gusting 10 27.8
2015-Jan-26 03:59 122 0 gusting 8 28.3
2015-Jan-26 03:49 135 3 gusting 8 28.3
2015-Jan-26 03:39 156 1 gusting 9 28.3
2015-Jan-26 03:29 139 3 gusting 9 28.3
2015-Jan-26 03:19 149 2 gusting 9 28.9
2015-Jan-26 03:09 135 5 gusting 11 28.9
2015-Jan-26 02:59 119 2 gusting 13 30.0
2015-Jan-26 02:49 135 1 gusting 8 30.0
2015-Jan-26 02:39 132 4 gusting 10 30.0
2015-Jan-26 02:29 100 2 gusting 9 30.6
2015-Jan-26 02:19 122 3 gusting 8 30.6
2015-Jan-26 02:09 122 2 gusting 8 30.6
2015-Jan-26 01:59 126 2 gusting 9 30.6
2015-Jan-26 01:49 131 4 gusting 9 30.0
2015-Jan-26 01:39 119 3 gusting 8 30.0
2015-Jan-26 01:29 126 2 gusting 8 30.0
2015-Jan-26 01:19 114 2 gusting 8 30.0
2015-Jan-26 01:09 105 2 gusting 7 30.0
2015-Jan-26 00:59 109 2 gusting 8 30.0
2015-Jan-26 00:49 117 2 gusting 7 30.0
2015-Jan-26 00:39 155 0 gusting 8 30.6
2015-Jan-26 00:29 122 1 gusting 11 30.6
2015-Jan-26 00:19 122 1 gusting 6 30.6
2015-Jan-26 00:09 119 1 gusting 7 30.0
2015-Jan-25 23:59 127 0 gusting 6 30.0
2015-Jan-25 23:49 127 2 gusting 8 30.0
2015-Jan-25 23:39 116 0 gusting 6 30.0
2015-Jan-25 23:29 123 2 gusting 8 29.4
2015-Jan-25 23:19 135 0 gusting 5 30.0
2015-Jan-25 23:09 132 1 gusting 8 30.0
2015-Jan-25 22:59 130 28.9
2015-Jan-25 22:49 115 0 gusting 6 28.3
2015-Jan-25 22:39 094 27.8
2015-Jan-25 22:29 083 0 gusting 3 27.2
2015-Jan-25 22:19 078 26.7
2015-Jan-25 22:09 079 0 gusting 3 26.7
2015-Jan-25 21:59 078 26.7
2015-Jan-25 21:49 078 26.7
2015-Jan-25 21:39 079 26.1
2015-Jan-25 21:29 020 26.1
2015-Jan-25 21:19 022 26.1
2015-Jan-25 21:09 021 26.1
2015-Jan-25 20:59 022 26.1
2015-Jan-25 20:49 021 25.6
2015-Jan-25 20:39 25.6
2015-Jan-25 20:29 022 25.6
2015-Jan-25 20:19 022 25.6
2015-Jan-25 20:09 022 25.6
2015-Jan-25 19:59 25.6
2015-Jan-25 19:49 021 25.6
2015-Jan-25 19:39 021 25.6
2015-Jan-25 19:29 021 25.6
2015-Jan-25 19:19 021 25.6
2015-Jan-25 19:09 021 25.6
2015-Jan-25 18:59 021 25.0
2015-Jan-25 18:49 021 25.0
2015-Jan-25 18:39 021 25.6
2015-Jan-25 18:29 021 25.6
2015-Jan-25 18:19 021 0 gusting 3 25.6
2015-Jan-25 18:09 022 25.6
2015-Jan-25 17:59 021 25.6
2015-Jan-25 17:49 021 25.6
2015-Jan-25 17:39 021 25.6
2015-Jan-25 17:29 022 25.6
2015-Jan-25 17:19 25.6
2015-Jan-25 17:09 022 25.6
2015-Jan-25 16:59 022 25.6
2015-Jan-25 16:49 022 25.6
2015-Jan-25 16:39 021 26.1
2015-Jan-25 16:29 022 26.1
2015-Jan-25 16:19 26.1
2015-Jan-25 16:09 26.1
2015-Jan-25 15:59 26.1
2015-Jan-25 15:49 26.1
2015-Jan-25 15:39 26.1
2015-Jan-25 15:29 26.1
2015-Jan-25 15:19 021 26.1
2015-Jan-25 15:09 022 26.7
2015-Jan-25 14:59 022 26.7
2015-Jan-25 14:49 022 26.7
2015-Jan-25 14:39 021 26.7
2015-Jan-25 14:29 021 0 gusting 5 26.7
2015-Jan-25 14:19 021 0 gusting 3 26.7
2015-Jan-25 14:09 021 0 gusting 3 26.7